Content
SEND FEEDBACK

Daily
Averages
Monthly
Summary
Bosnia and Herzegovina

ILIDZA, BOSNIA AND HERZEGOVINA


Home > Europe > Bosnia and Herzegovina
Elevation: 1677 feet     Latitude: 43 49N     Longitude: 018 19E

WEATHER
 
SELECT A DAY
Number of Records: 177,690;   Date Range: 2/20/97 - 7/28/14
 
SHARE

PRINT THIS DATA

[ ← Previous Day ]
WEATHER ALMANAC - APRIL 25, 2014
[ Next Day → ]
[ °C ]   °F
Weather ElementAverageHighLow
Temperature56.9 °F66.2 °F (3:00 pm)51.8 °F (1:00 am)
Dewpoint53.6 °F57.2 °F (2:30 pm)51.8 °F (1:00 am)
Humidity90 %100 % (1:00 am)60 % (3:00 pm)
Barometer29.87 in29.89 in (1:00 am)29.83 in (2:00 pm)
Wind Speed2.3 mph8.1 mph (3:30 pm)
Weather ElementAverage
Visibility4.8 mi
Wind DirectionENE (55.1 °)

Weather ElementTotal
Precipitation---
Heating Degree Days6 (Base 65)
Growing Degree Days9 (Base 50)
Averaged from 41 records on April 25, 2014
WEATHER CONDITIONS BREAKOUT
WIND DIRECTION BREAKOUT
WEATHER BY HOUR - APRIL 25, 2014
[ °C ]   °F
Local TimeTemperatureDewpointHumidityBarometerVisibilityWind DirectionWind SpeedGust SpeedPrecipitationEventsConditions
1:00 AM51.8 °F51.8 °F100 %29.89 in4.3 miVariable2.3 mphMostly Cloudy
2:00 AM51.8 °F51.8 °F100 %29.89 in4.3 miVariable2.3 mphMostly Cloudy
3:00 AM51.8 °F51.8 °F100 %29.89 in3.7 miVariable1.2 mphRainLight Rain
4:00 AM51.8 °F51.8 °F100 %29.86 in3.7 miVariable1.2 mphMostly Cloudy
5:00 AM51.8 °F51.8 °F100 %29.89 in3.7 miVariable1.2 mphMostly Cloudy
5:30 AM51.8 °F51.8 °F100 %29.89 in3.7 miVariable1.2 mphMostly Cloudy
6:00 AM51.8 °F51.8 °F100 %29.89 in5.0 miVariable2.3 mphMostly Cloudy
6:30 AM51.8 °F51.8 °F100 %29.89 in5.0 miCalmMostly Cloudy
7:00 AM51.8 °F51.8 °F100 %29.89 in5.0 miCalmRainLight Rain
7:30 AM53.6 °F51.8 °F94 %29.89 in5.0 miVariable1.2 mphMostly Cloudy
8:00 AM53.6 °F53.6 °F100 %29.89 in3.1 miVariable1.2 mphMostly Cloudy
8:30 AM55.4 °F53.6 °F94 %29.89 in3.7 miCalmMostly Cloudy
9:00 AM55.4 °F55.4 °F100 %29.89 in3.7 miVariable2.3 mphMostly Cloudy
9:30 AM57.2 °F55.4 °F94 %29.89 in4.3 miVariable2.3 mphMostly Cloudy
10:00 AM59.0 °F55.4 °F88 %29.89 in5.0 miWest (260°)3.5 mphScattered Clouds
10:30 AM60.8 °F55.4 °F82 %29.89 in5.0 miVariable2.3 mphScattered Clouds
11:00 AM60.8 °F53.6 °F77 %29.89 in5.0 miVariable1.2 mphMostly Cloudy
11:30 AM60.8 °F53.6 °F77 %29.89 in5.0 miVariable1.2 mphMostly Cloudy
12:00 PM60.8 °F51.8 °F72 %29.86 in5.0 miVariable1.2 mphMostly Cloudy
12:30 PM62.6 °F53.6 °F72 %29.86 in5.0 miVariable1.2 mphMostly Cloudy
1:00 PM64.4 °F51.8 °F64 %29.86 in6.2 miVariable2.3 mphMostly Cloudy
1:30 PM64.4 °F53.6 °F68 %29.86 in6.2 miNorth (360°)3.5 mphMostly Cloudy
2:00 PM64.4 °F55.4 °F73 %29.83 in6.2 miNNE (20°)3.5 mphRainLight Rain
2:30 PM64.4 °F57.2 °F77 %29.83 in6.2 miVariable2.3 mphRainLight Rain Showers
3:00 PM66.2 °F51.8 °F60 %29.83 in6.2 miVariable2.3 mphScattered Clouds
3:30 PM64.4 °F53.6 °F68 %29.83 in6.2 miNNW (340°)8.1 mphScattered Clouds
4:00 PM62.6 °F53.6 °F72 %29.83 in6.2 miNW (320°)8.1 mphScattered Clouds
4:30 PM62.6 °F55.4 °F77 %29.83 in6.2 miWNW (290°)5.8 mphMostly Cloudy
5:00 PM59.0 °F57.2 °F94 %29.83 in4.3 miNW (310°)5.8 mphRainLight Rain Showers
5:30 PM57.2 °F55.4 °F94 %29.83 in3.7 miVariable1.2 mphRainRain
6:00 PM57.2 °F57.2 °F100 %29.86 in4.3 miSE (140°)3.5 mphRainRain
6:30 PM55.4 °F55.4 °F100 %29.86 in4.3 miESE (110°)5.8 mphRainRain
7:00 PM55.4 °F53.6 °F94 %29.86 in4.3 miESE (110°)3.5 mphRainRain
7:30 PM53.6 °F53.6 °F100 %29.86 in5.0 miVariable1.2 mphRainRain
8:00 PM53.6 °F53.6 °F100 %29.86 in5.0 miVariable2.3 mphRainLight Rain
8:30 PM53.6 °F53.6 °F100 %29.86 in5.0 miVariable1.2 mphRainLight Rain
9:00 PM53.6 °F53.6 °F100 %29.86 in5.0 miVariable1.2 mphRainLight Rain
9:30 PM53.6 °F53.6 °F100 %29.86 in5.0 miCalmRainLight Rain
10:00 PM53.6 °F53.6 °F100 %29.86 in5.0 miCalmRainLight Rain
10:30 PM53.6 °F53.6 °F100 %29.86 in3.7 miVariable1.2 mphMostly Cloudy
11:00 PM53.6 °F53.6 °F100 %29.86 in3.7 miVariable2.3 mphMostly Cloudy
Hourly data recorded from LQSA, located miles away from Ilidza, Bosnia and Herzegovina







STORIES FROM OUR PARTNERS